Location: Greenwich
(51.4790°N, 0.0090°E)
Time: 01:54:33
(UTC+01:00)

Transit 4A - Pass Details

Date: 28 April 2024
Orbit: 871 x 971 km, 66.8° (Epoch: 20 May)

Event Time Altitude Azimuth Distance (km) Brightness Sun altitude
Rises 20:56:08 0° 319° (NW) 3,471 12.7 -5.9°
Reaches altitude 10° 20:58:42 10° 313° (NW) 2,530 11.9 -6.2°
Maximum altitude 21:04:11 44° 243° (WSW) 1,202 8.8 -6.9°
Drops below altitude 10° 21:09:42 10° 173° (S) 2,544 9.8 -7.7°
Sets 21:12:18 0° 167° (SSE) 3,492 10.5 -8.0°
Enters shadow 21:12:20 - 167° (SSE) 3,507 10.5 -8.0°
